This is the latest recevied weather packets stored in our database for station/object W4SNA-2. If no packets are shown the sender has not sent any weather packets the latest 10 day(s).
| Time | Temp. | Humidity | Pressure | Rain* | Wind** | Luminosity | Snow |
|---|---|---|---|---|---|---|---|
| 1777669801 | 15.56° C | 60% | 1012.6 hPa | 0 mm | - | - | - |
| 1777669500 | 15.56° C | 58% | 1012.8 hPa | 0 mm | - | - | - |
| 1777669200 | 15.56° C | 58% | 1012.8 hPa | 0 mm | - | - | - |
| 1777668900 | 15.56° C | 57% | 1012.8 hPa | 0 mm | - | - | - |
| 1777668600 | 15.56° C | 57% | 1012.8 hPa | 0 mm | - | - | - |
| 1777668300 | 15.56° C | 58% | 1012.7 hPa | 0 mm | - | - | - |
| 1777668002 | 15.56° C | 58% | 1012.8 hPa | 0 mm | - | - | - |
| 1777667700 | 15.56° C | 57% | 1012.8 hPa | 0 mm | - | - | - |
| 1777667400 | 15.56° C | 56% | 1012.9 hPa | 0 mm | - | - | - |
| 1777667100 | 15.56° C | 57% | 1013 hPa | 0 mm | - | - | - |
| 1777666800 | 15.56° C | 56% | 1013.2 hPa | 0 mm | - | - | - |
| 1777666501 | 15.56° C | 56% | 1013.2 hPa | 0 mm | - | - | - |
| 1777666202 | 15.56° C | 57% | 1013.3 hPa | 0 mm | - | - | - |
| 1777665902 | 15.56° C | 56% | 1013.2 hPa | 0 mm | - | - | - |
| 1777665600 | 16.11° C | 54% | 1013.3 hPa | 0 mm | - | - | - |
| 1777665302 | 16.11° C | 54% | 1013.4 hPa | 0 mm | - | - | - |
| 1777665001 | 15.56° C | 54% | 1013.6 hPa | 0 mm | - | - | - |
| 1777664700 | 15.56° C | 52% | 1013.6 hPa | 0 mm | - | - | - |
| 1777664400 | 15.56° C | 53% | 1013.6 hPa | 0 mm | - | - | - |
| 1777664100 | 16.11° C | 52% | 1013.8 hPa | 0 mm | - | - | - |
| 1777663800 | 16.11° C | 51% | 1013.7 hPa | 0 mm | - | - | - |
| 1777663500 | 16.11° C | 51% | 1013.9 hPa | 0 mm | - | - | - |
| 1777663201 | 16.11° C | 54% | 1014.2 hPa | 0 mm | - | - | - |
| 1777662902 | 16.11° C | 51% | 1014.3 hPa | 0 mm | - | - | - |
| 1777662601 | 16.11° C | 51% | 1014.4 hPa | 0 mm | - | - | - |
* Rain latest hour (hover to see other rain measurements)
** Current wind speed in m/s (hover to see current wind gust speed)